Tiempo cada hora Cavtat

Hoy, 16 Enero, Sábado

Tiempo Temperatura Precipitaciones Viento Presión Humedad
00:00 -4°C° 0 mm 5 mps 753 mmHg 62%
01:00 -4°C° 0 mm 5 mps 753 mmHg 61%
02:00 -4°C° 0 mm 5 mps 753 mmHg 61%
03:00 -4°C° 0 mm 5 mps 753 mmHg 60%
04:00 -5°C° 0 mm 5 mps 753 mmHg 60%
05:00 -5°C° 0 mm 6 mps 753 mmHg 58%
06:00 -5°C° 0 mm 6 mps 753 mmHg 55%
07:00 -6°C° 0 mm 7 mps 753 mmHg 53%
08:00 -4°C° 0 mm 6 mps 753 mmHg 49%
09:00 -3°C° 0 mm 6 mps 753 mmHg 46%
10:00 -2°C° 0 mm 6 mps 754 mmHg 42%
11:00 -1°C° 0 mm 6 mps 753 mmHg 41%
12:00 -1°C° 0 mm 7 mps 753 mmHg 41%
13:00 0°C° 0 mm 7 mps 753 mmHg 40%
14:00 -1°C° 0 mm 7 mps 753 mmHg 43%
15:00 -2°C° 0 mm 7 mps 753 mmHg 45%
16:00 -2°C° 0 mm 6 mps 753 mmHg 48%
17:00 -3°C° 0 mm 6 mps 754 mmHg 51%
18:00 -4°C° 0 mm 6 mps 754 mmHg 54%
19:00 -5°C° 0 mm 6 mps 755 mmHg 57%
20:00 -5°C° 0 mm 5 mps 755 mmHg 57%
21:00 -5°C° 0 mm 5 mps 756 mmHg 56%
22:00 -6°C° 0 mm 5 mps 756 mmHg 56%
23:00 -6°C° 0 mm 5 mps 756 mmHg 56%

Mañana, 17 Enero, Domingo

Tiempo Temperatura Precipitaciones Viento Presión Humedad
00:00 -6°C° 0 mm 5 mps 756 mmHg 57%
01:00 -6°C° 0 mm 5 mps 756 mmHg 57%
02:00 -5°C° 0 mm 4 mps 756 mmHg 57%
03:00 -7°C° 0 mm 4 mps 756 mmHg 57%
04:00 -7°C° 0 mm 4 mps 755 mmHg 57%
05:00 -6°C° 0 mm 3 mps 756 mmHg 56%
06:00 -6°C° 0 mm 3 mps 756 mmHg 54%
07:00 -5°C° 0 mm 2 mps 756 mmHg 53%
08:00 -3°C° 0 mm 2 mps 755 mmHg 48%
09:00 -2°C° 0 mm 2 mps 755 mmHg 44%
10:00 +1°C° 0 mm 1 mps 755 mmHg 40%
11:00 +2°C° 0 mm 1 mps 755 mmHg 39%
12:00 +3°C° 0 mm 1 mps 754 mmHg 38%
13:00 +4°C° 0 mm 1 mps 754 mmHg 37%
14:00 +4°C° 0 mm 1 mps 754 mmHg 42%
15:00 +3°C° 0 mm 1 mps 753 mmHg 46%
16:00 +3°C° 0 mm 1 mps 753 mmHg 50%
17:00 +2°C° 0 mm 1 mps 753 mmHg 52%
18:00 +2°C° 0 mm 1 mps 754 mmHg 54%
19:00 +2°C° 0 mm 1 mps 754 mmHg 56%
20:00 +1°C° 0 mm 1 mps 754 mmHg 56%
21:00 +1°C° 0 mm 1 mps 754 mmHg 55%
22:00 +1°C° 0 mm 1 mps 754 mmHg 54%
23:00 +1°C° 0 mm 1 mps 755 mmHg 53%

Pasado mañana, 18 Enero, Lunes

Tiempo Temperatura Precipitaciones Viento Presión Humedad
00:00 +1°C° 0 mm 1 mps 755 mmHg 52%
01:00 -1°C° 0 mm 2 mps 755 mmHg 51%
02:00 -2°C° 0 mm 2 mps 755 mmHg 51%
03:00 -2°C° 0 mm 2 mps 755 mmHg 52%
04:00 -2°C° 0 mm 2 mps 755 mmHg 53%
05:00 -2°C° 0 mm 3 mps 756 mmHg 55%
06:00 -4°C° 0 mm 4 mps 756 mmHg 58%
07:00 -4°C° 0 mm 4 mps 757 mmHg 60%
08:00 -3°C° 0 mm 4 mps 757 mmHg 54%
09:00 -2°C° 0 mm 4 mps 757 mmHg 49%
10:00 -1°C° 0 mm 4 mps 758 mmHg 43%
11:00 0°C° 0 mm 4 mps 758 mmHg 41%
12:00 0°C° 0 mm 4 mps 758 mmHg 38%
13:00 +1°C° 0 mm 4 mps 758 mmHg 36%
14:00 +1°C° 0 mm 3 mps 758 mmHg 39%
15:00 +1°C° 0 mm 3 mps 758 mmHg 42%
16:00 +1°C° 0 mm 3 mps 758 mmHg 45%
17:00 0°C° 0 mm 3 mps 759 mmHg 50%
18:00 -1°C° 0 mm 3 mps 759 mmHg 54%
19:00 -2°C° 0 mm 3 mps 760 mmHg 59%
20:00 -4°C° 0 mm 3 mps 760 mmHg 56%
21:00 -4°C° 0 mm 3 mps 760 mmHg 53%
22:00 -4°C° 0 mm 3 mps 761 mmHg 49%
23:00 -4°C° 0 mm 3 mps 761 mmHg 48%

19 Enero, Martes

Tiempo Temperatura Precipitaciones Viento Presión Humedad
00:00 -2°C° 0 mm 3 mps 761 mmHg 46%
01:00 -2°C° 0 mm 3 mps 761 mmHg 44%
02:00 -2°C° 0 mm 3 mps 761 mmHg 49%
03:00 -2°C° 0 mm 3 mps 761 mmHg 53%
04:00 -2°C° 0 mm 2 mps 761 mmHg 57%
05:00 -2°C° 0 mm 2 mps 761 mmHg 60%
06:00 -2°C° 0 mm 2 mps 761 mmHg 62%
07:00 -2°C° 0 mm 2 mps 762 mmHg 65%
08:00 +1°C° 0 mm 2 mps 762 mmHg 60%
09:00 +2°C° 0 mm 2 mps 762 mmHg 56%
10:00 +5°C° 0 mm 1 mps 762 mmHg 52%
11:00 +6°C° 0 mm 1 mps 761 mmHg 49%
12:00 +7°C° 0 mm 1 mps 761 mmHg 46%
13:00 +8°C° 0 mm 1 mps 761 mmHg 44%
14:00 +7°C° 0 mm 1 mps 761 mmHg 47%
15:00 +6°C° 0 mm 1 mps 761 mmHg 51%
16:00 +6°C° 0 mm 1 mps 761 mmHg 55%
17:00 +4°C° 0 mm 2 mps 761 mmHg 56%
18:00 +3°C° 0 mm 2 mps 762 mmHg 58%
19:00 +2°C° 0 mm 2 mps 762 mmHg 59%
20:00 +2°C° 0 mm 2 mps 762 mmHg 60%
21:00 +2°C° 0 mm 2 mps 762 mmHg 60%
22:00 +3°C° 0 mm 1 mps 762 mmHg 60%
23:00 +3°C° 0 mm 1 mps 762 mmHg 62%

20 Enero, Miércoles

Tiempo Temperatura Precipitaciones Viento Presión Humedad
00:00 +3°C° 0 mm 1 mps 762 mmHg 63%
01:00 +3°C° 0 mm 1 mps 762 mmHg 65%
02:00 +3°C° 0 mm 2 mps 762 mmHg 66%
03:00 +3°C° 0 mm 2 mps 762 mmHg 68%
04:00 +4°C° 0 mm 2 mps 762 mmHg 70%
05:00 +3°C° 0 mm 3 mps 762 mmHg 74%
06:00 +3°C° 0 mm 3 mps 762 mmHg 77%
07:00 +3°C° 0 mm 4 mps 762 mmHg 81%
08:00 +3°C° 0 mm 4 mps 762 mmHg 81%
09:00 +4°C° 0 mm 4 mps 762 mmHg 81%
10:00 +4°C° 0 mm 4 mps 762 mmHg 81%
11:00 +5°C° 0 mm 4 mps 761 mmHg 80%
12:00 +6°C° 0 mm 5 mps 761 mmHg 79%
13:00 +6°C° 0 mm 5 mps 761 mmHg 78%
14:00 +6°C° 0 mm 5 mps 761 mmHg 82%
15:00 +5°C° 0 mm 5 mps 760 mmHg 85%
16:00 +5°C° 0 mm 5 mps 760 mmHg 89%
17:00 +5°C° 0.1 mm 5 mps 760 mmHg 89%
18:00 +3°C° 0.1 mm 5 mps 761 mmHg 90%
19:00 +3°C° 0.1 mm 5 mps 761 mmHg 91%
20:00 +3°C° 0.1 mm 6 mps 760 mmHg 90%
21:00 +3°C° 0.1 mm 6 mps 760 mmHg 90%
22:00 +3°C° 0.1 mm 6 mps 760 mmHg 89%
23:00 +3°C° 0.1 mm 6 mps 760 mmHg 89%

21 Enero, Jueves

Tiempo Temperatura Precipitaciones Viento Presión Humedad
00:00 +3°C° 0.1 mm 6 mps 760 mmHg 88%
01:00 +3°C° 0.1 mm 6 mps 759 mmHg 88%
02:00 +3°C° 0.1 mm 6 mps 759 mmHg 88%
03:00 +3°C° 0.1 mm 6 mps 759 mmHg 89%
04:00 +3°C° 0.1 mm 6 mps 758 mmHg 89%
05:00 +3°C° 0 mm 6 mps 758 mmHg 89%
06:00 +3°C° 0 mm 6 mps 758 mmHg 89%
07:00 +3°C° 0 mm 6 mps 758 mmHg 89%
08:00 +4°C° 0 mm 6 mps 758 mmHg 87%
09:00 +5°C° 0 mm 6 mps 758 mmHg 85%
10:00 +7°C° 0 mm 6 mps 757 mmHg 83%
11:00 +8°C° 0 mm 6 mps 757 mmHg 83%
12:00 +9°C° 0 mm 6 mps 757 mmHg 83%
13:00 +9°C° 0 mm 7 mps 756 mmHg 83%
14:00 +9°C° 0 mm 6 mps 756 mmHg 86%
15:00 +8°C° 0 mm 6 mps 756 mmHg 88%
16:00 +8°C° 0 mm 6 mps 756 mmHg 90%
17:00 +7°C° 0 mm 6 mps 756 mmHg 91%
18:00 +7°C° 0 mm 6 mps 756 mmHg 91%
19:00 +5°C° 0 mm 6 mps 756 mmHg 91%
20:00 +5°C° 0 mm 6 mps 756 mmHg 91%
21:00 +5°C° 0 mm 6 mps 756 mmHg 91%
22:00 +5°C° 0 mm 6 mps 756 mmHg 92%
23:00 +7°C° 0.1 mm 6 mps 756 mmHg 92%
Mostrar más